Regional Weather Roundup
Issued by NWS Sioux Falls, SD

Home | Current Version | Previous Version | Text Only | Print | Product List | Glossary Off
Versions: 1 2 3 4 5 6 7 8 9 10 11 12 13 14 15 16 17 18 19 20 21 22 23 24 25 26 27 28 29 30 31 32 33 34 35 36 37 38 39 40 41 42 43 44 45 46 47 48 49 50

000
ASUS43 KFSD 280702
RWRFSD

WEATHER ROUNDUP FOR SE SOUTH DAKOTA/SW MINNESOTA/NW IOWA
NATIONAL WEATHER SERVICE SIOUX FALLS SD
100 AM CST SAT FEB 28 2015

NOTE: "FAIR" INDICATES FEW OR NO CLOUDS BELOW 12,000 FEET WITH NO
SIGNIFICANT WEATHER AND OR OBSTRUCTIONS TO VISIBILITY.


SDZ038>040-050-052>070-280800-
SOUTHEAST SOUTH DAKOTA

CITY           SKY/WX    TMP DP  RH WIND       PRES   REMARKS
CHAMBERLAIN    NOT AVBL
HURON          CLEAR      8   1  73 S13       30.33F WCI  -8
MADISON        FAIR       1   0  92 S12       30.36S WCI -15
MITCHELL       CLEAR      9   2  73 S12       30.36F WCI  -6
SIOUX FALLS    CLEAR      5  -2  72 S9        30.41S WCI  -9
WINNER         FAIR      16  -1  47 S17G25    30.21F WCI   0
YANKTON        CLEAR      9   1  72 SE6       30.43S WCI  -1
$$

MNZ071-072-080-081-089-090-097-098-280800-
SOUTHWEST MINNESOTA

CITY           SKY/WX    TMP DP  RH WIND       PRES   REMARKS
FAIRMONT       PTCLDY    -8 -11  84 S6        30.47F WCI -21
JACKSON        PTCLDY     0  -6  78 S9        30.45S WCI -16
LUVERNE        CLEAR      0  -6  78 CALM      30.44S
MARSHALL       CLEAR      3  -6  66 S16       30.43S WCI -16
MONTEVIDEO     CLEAR      1  -2  85 S8        30.44F WCI -12
PIPESTONE      CLEAR      0  -6  78 S8        30.38F WCI -15
REDWOOD FALLS  CLEAR     -3  -8  79 S8        30.47F WCI -18
TRACY          CLEAR      3  -4  72 S12       30.42F WCI -13
WINDOM         CLEAR      0  -6  78 S7        30.44F WCI -13
WORTHINGTON    CLEAR     19 -11  25 S12       30.44S WCI   7
$$

IAZ001>003-012>014-020>022-031-032-NEZ013-014-SDZ071-280800-
NORTHWEST IOWA

CITY           SKY/WX    TMP DP  RH WIND       PRES   REMARKS
DENISON        CLEAR      3  -4  72 CALM      30.47F
ESTHERVILLE    PTCLDY    -8 -11  86 S9        30.48F WCI -25
SIOUX CITY     CLEAR      3  -2  79 SE9       30.48F WCI -12
SPENCER        PTCLDY    -1  -7  75 S10       30.47F WCI -17
$$

ABBREVIATIONS USED IN REMARKS
   TC - TEMPERATURE IN CELSIUS
  WCI - WIND CHILL INDEX
   HX - HEAT INDEX
  VSB - VISIBILITY




USA.gov is the U.S. government's official web portal to all federal, state and local government web resources and services.